Hourly Data Report for July 05, 2021

SARNIA
ONTARIO
Current Station Operator: NAVCAN

42°59'58.000" N
82°18'32.000" W
181.40 m
6127510
71704
YZR

Download Data

Hourly Data (July 2021)
Hourly Data Report for July 5, 2021
TIME
LST
Temp Definition
°C
Dew Point Definition
°C
Rel Hum Definition
%
Precip. Amount Definition
mm

Wind Dir Definition
10's deg

Wind Spd Definition
km/h
Visibility Definition
km
Stn Press Definition
kPa
Hmdx Definition


Wind Chill Definition


Weather Definition


00:00 20.6 17.3 81 0.0 17 9 16.1 99.20 26   LegendNANA
01:00 19.9 17.3 85 0.0 20 9 16.1 99.20     LegendNANA
02:00 19.8 17.3 86 0.0 17 4 16.1 99.19     LegendNANA
03:00 19.1 17.3 89 0.0 17 5 16.1 99.18     LegendNANA
04:00 19.2 17.5 90 0.0 19 4 16.1 99.17     LegendNANA
05:00 19.0 17.7 92 0.0 18 11 16.1 99.19     LegendNANA
06:00 20.0 18.5 91 0.0 20 11 12.9 99.20 26   LegendNANA
07:00 23.2 20.0 82 0.0 22 9 12.9 99.18 31   LegendNANA
08:00 24.8 20.2 75 0.0 25 17 16.1 99.24 33   LegendNANA
09:00 26.0 20.8 73 0.0 26 17 16.1 99.26 34   LegendNANA
10:00 27.7 21.6 69 0.0 26 18 16.1 99.25 37   LegendNANA
11:00 29.5 21.3 61 0.0 23 18 16.1 99.20 38   LegendNANA
12:00 30.1 21.7 60 0.0 23 21 16.1 99.16 39   LegendNANA
13:00 31.1 21.9 58 0.0 24 26 16.1 99.12 40   LegendNANA
14:00 31.6 22.0 56 0.0 23 24 16.1 99.11 41   LegendNANA
15:00 32.0 20.5 50 0.0 24 26 16.1 99.06 40   LegendNANA
16:00 32.5 19.9 47 0.0 25 28 16.1 99.07 40   LegendNANA
17:00 32.2 20.0 48 0.0 24 24 16.1 99.05 40   LegendNANA
18:00 31.4 19.7 49 0.0 25 26 16.1 99.04 39   LegendNANA
19:00 30.8 19.4 50 0.0 25 22 16.1 99.04 38   LegendNANA
20:00 29.9 19.2 52 0.0 25 18 16.1 99.07 37   LegendNANA
21:00 29.1 19.3 55 0.0 25 18 16.1 99.17 36   LegendNANA
22:00 28.8 19.6 57 0.0 25 18 16.1 99.23 36   LegendNANA
23:00 27.6 20.1 63 0.0 22 13 16.1 99.18 35   LegendNANA

Notes on Data Quality.

Legend

  • E = Estimated
  • M = Missing
  • NA = Not Available*
  • [empty] = Indicates an unobserved value
Date modified: